Home   Weather   Linz   Past weeks

Flag for Austria Past Weather in Linz, Upper Austria, Austria — Yesterday and Last 2 Weeks

Now
45 °F

Partly sunny.


Feels Like: 40 °F
Forecast: 41 / 48 °F
Wind: 8 mph from Southwest

Location: Linz / Hoersching-Flughafen

Current Time: Feb 20, 2017 at 12:56:22 pm

Latest Report: Feb 20, 2017 at 12:20 pm


Visibility: N/A

Pressure: 30.18 "Hg

Humidity: 76%

Dew Point: 37 °F

Location of LinzLocation

Past Weather in Linz — Graph

°F

Linz Temperature Yesterday

Maximum temperature yesterday: 41 °F (at 2:20 pm)
Minimum temperature yesterday: 32 °F (at 7:20 am)
Average temperature yesterday: 35 °F

High & Low Weather Summary for the Past Weeks

 TemperatureHumidityPressure
High50 °F (Feb 16, 3:20 pm)100% (Feb 6, 8:20 am)30.63 "Hg (Feb 6, 8:20 am)
Low23 °F (Feb 15, 7:20 am)53% (Feb 5, 11:50 am)29.59 "Hg (Feb 5, 4:20 pm)
Average34 °F83%30.24 "Hg
* Reported Feb 5 11:20 am — Feb 20 11:20 am, Linz, Weather by CustomWeather, © 2017

Note: Actual official high and low records may vary slightly from our data, if they occured in-between our weather recording intervals... More about our weather records

Advertising

Linz Weather History for the Previous 24 Hours

Scroll right to see more
 ConditionsComfort  
Time TempWeatherWind HumidityBarometerVisibility
11:20 am
Mon, Feb 20
41 °FBroken clouds.5 mph87%30.21 "HgN/A
10:50 am39 °FPartly sunny.3 mph93%30.21 "HgN/A
10:20 am39 °FSprinkles. Partly sunny.5 mph87%30.21 "Hg6 mi
9:50 am39 °FPartly sunny.3 mph87%30.21 "Hg4 mi
9:20 am37 °FFog.5 mph93%30.21 "Hg3 mi
8:50 am37 °FFog.5 mph93%30.21 "Hg2 mi
8:20 am36 °FFog.5 mph93%30.21 "Hg2 mi
7:50 am36 °FFog.2 mph93%30.21 "Hg2 mi
7:20 am34 °FFog.2 mph100%30.21 "Hg2 mi
6:50 am36 °FLight rain. Fog.2 mph93%30.21 "Hg3 mi
6:20 am34 °FFog.1 mph100%30.21 "Hg3 mi
5:50 am34 °FFog.3 mph93%30.21 "Hg2 mi
5:20 am36 °FFog.3 mph93%30.18 "Hg3 mi
4:50 am34 °FFog.3 mph100%30.21 "Hg3 mi
4:20 am34 °FFog.2 mph93%30.21 "Hg2 mi
3:50 am34 °FFog.1 mph93%30.18 "Hg2 mi
3:20 am36 °FFog.6 mph93%30.21 "Hg3 mi
2:50 am34 °FLight rain. Fog.6 mph93%30.21 "Hg3 mi
2:20 am34 °FFog.6 mph93%30.21 "Hg3 mi
1:50 am34 °FFog.6 mph93%30.21 "Hg3 mi
1:20 am34 °FFog.8 mph93%30.21 "Hg3 mi
12:50 am34 °FFog.9 mph93%30.21 "Hg3 mi
12:20 am32 °FIce fog.2 mph93%30.21 "Hg3 mi
11:50 pm
Sun, Feb 19
32 °FIce fog.3 mph93%30.21 "Hg3 mi
11:20 pm34 °FPassing clouds.6 mph93%30.21 "Hg4 mi
10:50 pm34 °FPassing clouds.6 mph93%30.21 "Hg4 mi
10:20 pm34 °FFog.7 mph93%30.21 "Hg4 mi
9:50 pm34 °FPassing clouds.8 mph93%30.18 "Hg4 mi
9:20 pm34 °FPassing clouds.7 mph93%30.18 "Hg4 mi
8:50 pm34 °FPassing clouds.6 mph93%30.18 "Hg4 mi
8:20 pm36 °FPassing clouds.3 mph87%30.18 "HgN/A
7:50 pm36 °FPassing clouds.3 mph87%30.18 "HgN/A
7:20 pm36 °FPartly cloudy.2 mph87%30.18 "Hg5 mi
6:50 pm37 °FPassing clouds.5 mph81%30.18 "Hg6 mi
6:20 pm37 °FPassing clouds.5 mph81%30.18 "HgN/A
5:50 pm37 °FChilly.3 mph81%30.18 "HgN/A
5:20 pm37 °FChilly.5 mph81%30.18 "HgN/A
4:50 pm41 °FSunny.7 mph76%30.18 "Hg10 mi
4:20 pm41 °FPassing clouds.6 mph76%30.18 "HgN/A
3:50 pm41 °FPassing clouds.6 mph76%30.18 "HgN/A
3:20 pm41 °FPassing clouds.5 mph76%30.21 "HgN/A
2:50 pm41 °FScattered clouds.5 mph76%30.21 "HgN/A
2:20 pm41 °FScattered clouds.3 mph76%30.21 "HgN/A
1:50 pm39 °FScattered clouds.5 mph81%30.24 "HgN/A
1:20 pm39 °FPartly sunny.5 mph81%30.24 "HgN/A
12:50 pm39 °FBroken clouds.3 mph81%30.24 "HgN/A
12:20 pm37 °FScattered clouds.3 mph87%30.27 "HgN/A
Weather by CustomWeather, © 2017

See weather overviewHow to use our weather pages